カタログに戻る

PRC TEST SPACECRAFT 4

運用中科学VLEO
NORAD 67689·PAYLOAD·🇨🇳 China

打ち上げ Feb 7, 2026 から Jiuquan Satellite Launch Center

Loading…

次のパス (今後24時間)

TLE

最新Source: Space-Track

元期: Sep 14, 2026, 17:20 UTC

1 67689U 26024A   26257.72243008  .00000830  00000-0  10492-3 0  9998
2 67689  49.9932 215.3774 0005538  23.1387 336.9803 14.91966853 32805

AllMySatでPRC TEST SPACECRAFT 4をリアルタイム追跡

Download on the App Store